Regional Weather Roundup
Issued by NWS

Home | Current Version | Previous Version | Text Only | Print | Product List | Glossary On
Versions: 1 2 3 4 5 6 7 8 9 10 11 12 13 14 15 16 17 18 19 20 21 22 23 24 25 26 27 28 29 30 31 32 33 34 35 36 37 38 39 40 41 42 43 44 45 46 47 48 49 50
000
ASUS44 KBMX 230510
RWRAL

ALABAMA REGIONAL WEATHER ROUNDUP
NATIONAL WEATHER SERVICE BIRMINGHAM AL
1200 AM CDT TUE SEP 23 2014

NOTE: "FAIR" INDICATES FEW OR NO CLOUDS BELOW 12,000 FEET
WITH NO SIGNIFICANT WEATHER AND/OR OBSTRUCTIONS TO VISIBILITY.

THE REMARK "TC" DENOTES TEMPERATURE IN DEGREES CELSIUS.

ALZ001>011-014-016>018-020-230600-
NORTH ALABAMA

CITY           SKY/WX    TMP DP  RH WIND       PRES   REMARKS
MUSCLE SHOALS  CLEAR     60  47  61 CALM      30.19F
HUNTSVILLE     CLEAR     61  46  57 NE6       30.17S
DECATUR        CLEAR     58  46  64 NE6       30.18F
HALEYVILLE     FAIR      57  47  69 CALM      30.19S
GADSDEN        CLEAR     59  46  63 N7        30.15S
$$

ALZ012-013-022-023-030>036-040>044-230600-
WEST CENTRAL ALABAMA

CITY           SKY/WX    TMP DP  RH WIND       PRES   REMARKS
TUSCALOOSA     CLEAR     61  51  70 N7        30.12F
$$

ALZ015-024>027-033>036-040>044-230600-
CENTRAL ALABAMA

CITY           SKY/WX    TMP DP  RH WIND       PRES   REMARKS
BIRMINGHAM     CLEAR     63  48  58 E3        30.15F
MONTGOMERY     CLEAR     65  54  67 N7        30.09S
SHELBY CO ARPT CLEAR     65  49  56 VRB3      30.12F
MAXWELL AFB    CLEAR     64  55  72 N8        30.09S
GREENVILLE     FAIR      65  53  65 N7        30.08S
$$

ALZ019-021-028-029-037-038-045>048-230600-
EAST CENTRAL ALABAMA

CITY           SKY/WX    TMP DP  RH WIND       PRES   REMARKS
ANNISTON       CLEAR     63  51  65 NE5       30.13F
ALEXANDER CITY CLEAR     64  54  71 N3        30.10F
AUBURN         CLEAR     59  48  67 N7        30.13S
$$

ALZ051>064-230600-
SOUTHWEST ALABAMA

CITY           SKY/WX    TMP DP  RH WIND       PRES   REMARKS
MOBILE         CLEAR     66  55  67 N8        30.06S
BROOKLEY FIELD CLEAR     72  59  63 N7        30.06S
EVERGREEN      CLEAR     63  55  75 CALM      30.07S
$$

ALZ049-050-065>069-230600-
SOUTHEAST ALABAMA

CITY           SKY/WX    TMP DP  RH WIND       PRES   REMARKS
DOTHAN         CLEAR     64  62  93 N6        30.08F
OZARK          CLEAR     65  62  91 N7        30.05S
TROY           CLEAR     60  55  83 N3        30.08F
EUFAULA        FAIR      63  59  87 CALM      30.05F
$$



USA.gov is the U.S. government's official web portal to all federal, state and local government web resources and services.